Startpagina
METAR-TAF:

METAR-TAF

Vliegvelden :

Agartala, India

breedte: 23-53-24N, lengte: 91-14-32E, hoogte: 14 m

Actueel weer

Dit bericht is 4 uur en het 21 minuten geleden gemaakt, om 14:00 UTC
Weinig wind
Temperatuur 21°C
Vochtigheid 88%
Druk 1014 hPa
Zicht: 4500 m
nevel

METAR: VEAT 181400Z 00000KT 4500 BR NSC 21/19 Q1014 NOSIG

Tijdstip: 23:51 (18:21 UTC)


TAF: ontbreekt

Waarnemingen en weersverwachtingen van meer dan 4000 vliegvelden (METAR en TAF).

De beschikbare stations zijn de gele en rode punten op de kaart.

Ga met uw muis naar het station om de naam te zien.

Klik dan om waarnemingen en weersverwachtingen te zien.

kaart wijzigen: klik op de groene knoppen met een zwart kruis om in te zoomen, op de groene knop met een streepje om uit te zoomen of op de groene pijlen voor aangrenzende kaarten.


METAR-TAF: